Temp
12 12 12 13 13 14 14 15 15 16 17 18 19 19 20 21 23 23 26 23 23 24 25 25 27 29 29 29 29 30 27 27 29 30 30 32 32 33 34 33 32 33 32 32 31
12 12 12 12 13 14 15 15 16 16 17 18 19 19 20 21 22 27 24 24 24 24 26 28 29 29 28 30 28 28 27 29 31 31 29 30 30 31 31 31 31 31 33 32 31
12 12 12 13 13 14 15 16 16 17 18 19 19 20 20 21 24 25 24 24 24 24 25 27 28 29 29 29 29 29 27 30 30 30 30 29 29 31 30 28 30 30 31 32 30
12 13 13 14 14 15 16 16 17 17 18 19 19 20 21 21 27 23 24 24 24 25 26 28 29 29 29 29 31 28 29 30 30 30 29 28 29 28 28 28 30 30 31 31 28
14 14 14 15 15 16 16 17 17 18 19 19 20 20 21 25 26 24 24 24 24 26 27 28 28 29 28 30 30 29 29 30 30 29 29 29 27 28 28 29 30 30 30 30 29
14 15 15 16 16 17 17 17 18 18 19 20 20 21 21 27 24 24 24 25 25 26 27 28 28 28 27 28 28 29 28 28 28 29 29 29 28 28 29 30 30 30 30 29 29
15 16 16 16 17 17 17 18 18 19 20 20 21 20 25 24 24 25 24 25 25 25 27 27 26 27 27 27 29 28 26 27 28 29 29 28 27 27 29 30 30 30 30 29 29
16 16 16 17 17 18 18 18 19 19 20 21 21 21 25 23 24 24 25 26 25 25 25 25 25 26 26 27 27 28 27 26 31 30 27 27 25 27 30 30 29 29 28 28 28
16 16 17 17 18 18 18 19 20 20 21 21 21 24 25 24 25 25 25 26 25 26 25 26 26 26 27 25 26 27 27 28 29 30 29 28 25 28 29 29 28 28 28 28 28
16 17 17 18 18 19 19 19 20 20 21 21 23 24 26 26 25 24 25 25 26 26 26 26 26 25 25 26 25 26 26 27 26 28 28 27 26 28 28 28 27 28 28 28 29
17 17 17 18 18 19 19 19 21 23 25 24 25 26 26 25 24 26 25 26 26 26 26 27 24 25 26 25 26 26 26 25 27 29 27 26 26 27 28 27 27 27 25 24 24
18 18 18 18 19 19 19 23 22 22 23 24 24 25 24 24 26 26 25 26 26 25 27 26 24 26 26 26 25 25 25 25 27 28 26 25 25 26 27 26 24 23 22 22 22
18 18 19 19 20 19 22 21 20 21 24 24 25 25 24 25 26 25 26 26 25 25 27 25 27 26 26 25 25 26 25 25 24 25 25 25 26 27 25 24 23 22 21 21 20
19 19 19 19 19 22 22 20 20 20 25 24 25 25 25 25 24 25 25 24 26 25 25 25 26 25 25 25 26 23 25 24 24 23 22 25 21 24 24 23 22 21 20 20 19
19 19 20 20 21 23 20 19 20 21 26 24 25 25 26 26 25 24 24 25 24 24 24 25 25 24 23 24 24 23 24 23 23 22 22 24 22 26 25 22 21 21 21 20 19
19 19 19 20 21 19 19 19 20 23 25 24 25 24 25 25 25 25 25 25 25 23 24 24 26 25 23 24 24 24 23 23 23 22 21 24 24 25 24 21 20 20 20 20 19
18 18 19 20 21 19 19 21 24 25 25 24 24 24 24 24 25 24 24 21 20 20 23 24 25 24 23 22 24 22 21 20 23 21 21 24 23 25 21 21 19 19 19 18 18
18 18 19 19 19 19 21 23 25 25 23 23 23 24 24 22 23 24 23 22 19 19 20 22 23 23 23 22 20 20 21 20 20 21 20 22 21 23 21 19 19 18 18 18 17
18 20 21 19 19 19 22 24 21 22 22 21 23 24 23 23 22 23 21 20 18 18 18 20 22 23 22 21 21 21 20 19 18 20 19 20 24 22 20 18 18 17 18 17 17
19 23 21 20 19 20 23 21 20 20 20 22 23 22 23 22 22 22 23 18 18 17 18 19 16 21 21 21 21 20 20 18 18 17 18 21 20 20 17 16 17 17 17 17 17
19 23 21 21 21 22 23 20 19 19 20 20 21 22 21 20 20 21 21 16 17 17 17 18 17 19 20 20 19 18 18 18 18 17 16 15 17 19 16 16 16 17 17 17 16
22 24 21 22 24 24 21 20 15 19 20 19 19 19 19 19 19 20 20 17 15 16 16 16 14 14 17 19 18 17 17 18 15 15 14 12 13 17 16 16 17 17 17 16 15
23 23 22 23 23 20 19 17 18 18 17 18 18 17 18 18 17 18 18 15 15 15 14 14 15 13 17 17 17 17 17 17 16 13 12 11 12 17 16 16 17 16 16 15 15
22 22 22 23 23 21 20 19 16 16 16 17 17 17 17 18 18 17 17 16 14 14 14 13 13 14 13 14 15 14 15 15 14 11 12 12 13 15 15 15 16 15 15 14 14
20 18 17 21 20 20 20 20 18 17 17 17 16 16 15 16 17 17 16 16 16 14 14 13 12 14 14 14 14 13 13 14 13 13 12 12 13 14 15 15 15 15 14 14 14
19 20 19 18 19 20 17 19 19 16 17 17 16 16 15 14 15 14 15 14 14 15 14 14 11 12 11 13 13 13 14 14 14 14 14 14 14 15 15 15 15 13 13 13 13
17 17 17 13 19 20 18 18 17 16 15 16 15 14 15 14 13 13 13 13 13 13 12 12 11 11 10 13 12 11 14 15 15 15 14 12 13 14 13 12 12 12 12 13 12
Height
808 808 807 808 808 808 809 809 809 809 809 808 807 807 806 805 803 802 802 805 804 803 801 799 799 798 798 795 796 794 817 821 810 801 795 774 781 769 764 772 771 767 768 771 775
807 807 807 807 808 807 808 808 808 808 808 808 808 807 806 805 802 801 805 804 803 802 800 799 796 796 797 795 796 803 815 806 786 786 792 785 783 779 779 779 777 771 762 763 768
807 807 807 806 807 807 808 808 808 808 808 807 807 807 806 805 803 803 804 804 803 802 802 800 798 796 798 794 795 796 810 791 788 783 783 788 787 777 783 788 775 777 767 763 767
808 808 807 806 807 808 808 809 808 808 808 808 807 806 805 806 812 804 804 804 803 802 801 798 795 797 799 801 788 805 791 788 783 781 785 790 782 785 782 777 764 764 762 762 764
808 807 807 807 808 808 809 809 809 809 808 808 807 805 805 804 804 805 805 805 803 803 801 798 796 795 803 793 792 796 791 783 779 782 782 780 785 785 777 767 762 761 760 760 761
808 808 808 809 809 809 809 809 809 809 809 808 807 805 805 804 806 806 805 805 805 803 801 799 798 797 801 797 800 789 791 789 783 780 778 782 780 778 767 760 760 758 758 758 757
808 808 808 808 809 809 810 809 809 809 808 808 807 806 804 808 806 806 806 806 805 804 802 801 801 800 797 799 788 790 800 789 778 772 776 776 785 781 761 754 756 756 755 752 751
808 808 808 809 809 809 809 809 809 809 808 808 807 807 806 806 805 806 806 805 805 804 803 803 801 800 799 793 793 796 794 805 771 770 776 781 798 774 757 759 762 758 757 755 752
808 808 808 809 809 809 809 809 808 808 807 807 806 805 807 805 805 806 806 804 804 803 803 801 801 800 797 808 808 792 808 796 784 767 775 781 789 769 758 760 761 759 757 755 753
808 808 808 808 808 808 808 807 807 807 807 808 807 810 805 806 806 806 805 805 803 801 800 800 800 806 804 806 825 812 808 799 803 782 777 784 781 764 757 757 757 754 752 752 753
808 808 807 807 808 808 807 808 810 809 805 809 807 805 803 806 806 805 805 803 801 801 807 799 814 814 806 803 803 805 808 806 792 777 781 785 780 766 754 753 754 754 759 766 765
807 807 807 807 807 808 808 804 808 811 812 807 807 806 807 807 805 804 805 806 803 810 798 806 816 802 800 799 805 805 807 802 785 777 786 786 783 764 748 754 761 767 771 772 771
807 807 807 808 808 809 808 809 809 809 807 810 807 806 808 807 807 807 806 803 806 808 801 810 799 797 803 805 806 803 804 800 804 791 785 782 778 765 766 762 766 775 780 781 783
806 807 808 808 811 808 809 810 810 810 812 819 810 808 807 807 812 808 807 809 803 808 807 806 796 802 806 807 801 814 796 802 803 808 813 786 816 782 774 775 779 784 785 787 789
806 807 808 810 809 808 812 810 810 811 824 814 811 807 805 808 809 810 808 806 813 810 811 810 803 807 814 809 805 812 800 804 801 804 805 792 808 770 764 783 787 787 788 789 791
808 808 810 810 810 811 810 810 811 820 827 819 810 813 809 807 808 806 807 808 805 812 806 807 794 800 809 803 801 799 801 798 789 797 818 785 790 780 774 787 792 791 791 792 792
809 810 810 810 810 810 810 810 818 821 811 822 821 816 815 819 813 815 817 828 834 836 820 807 800 804 806 813 799 807 816 823 806 817 813 776 792 777 788 791 797 799 797 795 794
811 811 812 811 810 810 810 811 822 816 822 818 820 818 821 824 820 820 821 828 837 838 833 826 820 811 808 817 825 820 821 832 835 818 815 785 801 788 783 791 797 800 799 797 795
812 811 812 812 810 811 811 816 833 826 828 830 820 821 824 825 828 821 832 838 847 846 850 839 821 807 811 815 820 818 827 828 835 822 826 802 777 780 779 792 796 797 794 794 791
811 810 812 811 810 811 812 827 835 835 834 828 826 828 827 830 830 828 825 848 848 850 846 843 853 819 816 817 813 823 821 840 837 842 829 796 796 793 795 791 791 794 792 788 782
812 807 812 810 811 809 816 832 840 838 836 837 834 832 835 840 839 836 836 856 854 853 850 848 851 831 825 823 829 831 833 831 833 838 842 835 807 788 801 802 800 795 790 792 792
809 809 812 811 810 807 825 832 843 842 838 840 840 842 842 844 844 842 841 850 860 859 857 855 861 856 835 823 826 832 835 833 848 843 844 857 812 796 803 802 800 797 792 789 788
811 813 813 810 817 828 837 844 844 844 848 844 848 850 849 849 853 847 848 860 862 863 865 864 857 862 833 836 831 833 833 836 839 845 845 855 821 800 805 801 795 791 789 788 786
814 818 816 814 813 821 831 839 851 852 852 851 852 851 852 850 850 853 853 856 861 864 866 869 866 861 863 851 845 845 841 839 842 850 840 833 819 813 806 800 791 789 786 786 786
819 833 832 829 830 827 828 834 845 850 852 852 856 855 859 857 852 851 854 855 855 863 864 865 864 855 850 846 847 845 842 838 840 837 841 822 818 808 798 795 791 787 785 784 784
826 829 831 835 833 830 841 839 840 851 851 853 855 856 859 861 859 863 861 862 861 858 861 861 867 860 858 848 844 839 832 829 826 823 818 809 803 800 792 789 787 788 787 786 783
834 834 834 846 835 833 840 841 846 849 856 855 857 860 859 859 863 862 864 863 862 864 865 866 864 865 862 844 845 844 819 816 815 815 813 813 805 795 797 797 794 792 789 784 782
Wind_Speed
2 3 3 5 6 6 5 5 4 2 0 1 2 4 5 7 3 4 2 3 3 5 6 6 5 3 7 3 3 1 2 5 9 8 7 10 10 9 5 2 6 8 5 7 19
2 1 2 4 4 4 3 4 3 2 1 1 3 5 6 7 7 3 4 1 3 4 8 7 3 6 3 3 3 2 3 5 6 7 7 10 9 9 10 9 10 9 7 17 20
3 3 3 3 4 4 4 4 3 2 0 2 4 7 7 5 6 5 2 2 4 3 8 7 8 6 5 3 5 3 3 5 9 7 7 8 11 9 9 8 8 9 11 1 9
3 3 2 2 3 3 3 2 1 1 1 3 5 7 5 2 1 3 3 4 4 7 7 5 6 4 3 5 3 3 8 10 7 7 7 9 11 10 11 11 9 10 9 7 11
4 4 3 2 2 1 2 2 1 2 2 4 6 8 2 5 5 2 4 6 5 5 4 5 7 3 6 5 6 9 12 13 7 8 7 10 10 10 13 14 12 13 11 9 8
3 3 3 2 1 0 1 2 2 2 3 5 7 7 4 2 3 1 2 3 4 6 3 6 6 6 6 7 6 7 10 13 13 15 12 13 10 7 11 10 10 9 9 9 10
3 2 1 1 1 2 3 3 3 3 4 5 6 4 6 5 1 0 2 2 4 5 5 5 7 6 8 7 5 7 12 13 16 15 7 6 8 11 13 11 9 8 9 10 11
2 1 1 1 2 3 3 4 4 4 4 4 5 4 3 1 1 1 2 3 2 2 3 4 6 6 3 8 6 6 8 4 5 4 5 7 9 10 8 7 8 9 10 11 11
2 2 2 2 2 3 3 4 4 3 3 3 5 5 5 2 1 3 3 5 4 3 3 4 4 3 3 5 6 7 5 9 8 6 2 6 10 7 9 11 14 10 9 9 8
2 2 2 2 2 2 2 2 3 2 2 3 6 4 2 3 2 2 1 2 3 5 7 4 4 4 6 5 5 11 12 12 12 8 11 10 15 12 11 10 10 9 8 8 6
3 2 2 2 2 2 5 2 4 3 2 3 4 3 5 3 1 2 2 5 4 5 4 3 3 6 9 7 8 8 11 13 13 13 12 9 16 20 19 12 9 7 16 19 19
2 1 1 1 2 4 5 5 5 4 4 2 3 4 2 2 2 4 3 4 1 6 5 5 7 5 6 5 5 8 13 14 12 10 13 11 18 22 23 6 20 20 20 19 20
2 0 1 5 7 2 3 6 4 5 4 3 2 4 2 5 3 6 5 5 6 6 5 5 9 3 4 6 11 11 12 10 13 15 14 10 7 2 15 22 21 20 17 19 19
2 1 7 8 1 4 4 4 4 3 4 5 3 3 3 0 2 2 5 3 3 4 7 8 5 2 7 10 10 9 9 11 12 11 4 10 6 9 10 17 17 12 11 14 16
5 3 8 1 2 0 2 4 3 2 3 2 4 1 2 2 1 3 2 3 6 10 4 5 8 6 7 8 10 6 9 13 15 13 11 10 4 6 17 14 12 11 14 13 13
6 7 8 1 3 1 2 2 2 3 1 4 2 2 5 4 4 1 0 1 7 8 9 12 9 4 2 9 8 9 11 17 17 8 5 9 10 4 4 13 10 11 12 14 11
7 5 2 2 2 3 2 4 3 3 2 4 2 3 4 5 1 4 3 10 6 8 5 11 1 6 7 9 2 9 11 4 2 2 5 14 6 4 16 15 16 13 14 16 15
6 7 6 6 2 2 3 4 4 3 6 1 1 4 3 7 4 5 7 5 12 9 5 6 2 4 5 3 6 12 5 4 5 4 8 19 4 6 17 17 13 14 11 9 10
1 3 4 7 3 1 4 3 5 6 4 5 5 5 5 3 4 5 6 4 6 10 7 6 2 6 8 4 4 8 4 4 5 9 10 6 6 19 15 17 16 19 15 12 12
5 4 3 6 2 4 3 4 4 5 5 4 4 3 4 5 5 5 1 4 3 7 8 4 7 8 6 3 6 5 3 2 3 5 5 4 7 4 23 21 24 21 16 17 15
4 2 6 6 3 4 3 5 5 5 6 7 4 2 3 4 4 4 6 5 4 7 9 5 3 2 12 3 8 5 6 7 5 6 4 5 6 7 16 18 23 22 16 13 8
5 0 9 8 3 3 4 3 2 3 4 5 4 6 5 4 3 2 3 5 4 6 5 5 4 5 8 9 7 4 7 8 1 5 4 3 17 19 13 21 18 18 14 9 9
2 2 6 5 1 5 6 5 6 2 6 3 3 5 4 3 3 1 5 7 5 6 6 7 2 5 4 4 4 2 3 3 8 4 15 11 12 15 22 22 20 19 9 10 12
2 1 2 4 4 10 8 6 4 5 4 4 3 1 3 2 3 2 3 4 6 3 3 2 4 6 5 10 14 15 13 14 14 10 16 17 26 21 22 25 20 11 11 11 12
3 2 1 2 4 6 5 3 7 3 2 1 3 3 3 2 4 5 1 5 4 7 2 3 6 9 11 14 16 18 19 18 17 18 18 24 25 24 18 19 15 14 13 14 18
3 1 3 3 2 6 2 3 4 4 1 5 2 4 1 3 3 6 9 7 6 4 1 2 4 9 12 16 16 18 18 19 19 20 21 20 22 18 14 16 16 13 14 15 18
5 1 3 1 1 4 2 5 5 3 3 3 2 2 5 4 7 7 8 8 9 8 7 5 3 5 4 7 17 14 4 6 13 16 13 16 18 15 14 16 17 17 18 18 14
Wind_Direction
236 248 242 230 237 245 264 281 263 273 345 358 345 342 336 322 290 244 59 14 343 320 321 287 258 255 240 226 231 260 277 280 287 311 338 351 347 334 338 251 285 286 175 94 141
121 167 191 196 201 215 223 220 224 213 179 335 336 338 330 319 271 75 348 326 331 355 353 342 342 306 242 225 198 231 244 261 318 345 332 329 317 307 310 311 309 314 262 156 159
130 157 184 177 180 179 193 207 205 201 94 349 343 339 332 315 268 73 22 299 326 334 306 295 284 271 259 152 232 243 238 298 320 331 332 299 299 294 300 286 250 275 302 61 166
121 127 127 148 162 171 189 206 204 263 353 345 342 338 327 269 98 98 7 9 19 360 291 281 247 245 253 255 203 267 259 272 273 280 291 292 301 295 282 268 275 266 264 279 176
90 95 99 111 133 159 204 228 250 286 334 339 342 344 336 218 77 4 22 345 355 321 5 335 278 335 259 316 309 258 268 278 315 306 277 274 266 264 271 276 280 284 284 255 237
92 103 105 111 119 176 251 263 281 303 327 335 342 341 260 202 78 62 7 341 3 334 5 339 356 337 290 289 293 325 316 294 284 273 271 267 275 279 262 273 269 255 258 255 255
66 90 123 155 211 246 258 266 275 288 309 325 340 355 268 78 74 340 359 4 347 353 337 20 339 310 344 284 347 302 288 283 268 258 216 36 288 240 264 248 234 260 269 250 226
30 352 295 259 258 263 266 268 271 280 292 313 327 311 62 171 163 298 286 271 316 318 325 336 336 288 266 331 296 253 252 291 254 124 127 114 273 298 328 16 328 314 315 322 321
341 319 297 286 283 280 284 284 281 284 300 324 318 253 103 124 131 2 329 334 323 274 291 294 293 293 282 249 288 232 266 293 320 65 94 206 286 257 261 283 278 275 276 265 285
263 259 256 253 248 254 277 193 142 107 340 266 274 259 150 75 43 300 21 310 304 301 251 235 228 242 225 244 288 327 321 313 306 318 310 281 284 297 288 276 275 275 272 282 333
238 250 267 270 234 206 133 175 200 187 30 16 29 97 93 106 218 153 339 289 256 244 272 136 299 267 8 14 336 311 293 290 294 301 305 320 309 301 296 287 283 312 42 57 52
258 245 257 223 176 168 226 277 49 353 110 80 151 104 54 286 235 130 311 279 268 290 318 247 236 57 346 315 298 290 285 286 286 340 343 305 293 286 279 43 74 65 55 41 34
233 247 159 146 142 161 52 54 359 348 240 97 32 65 26 292 34 50 321 343 274 287 279 290 311 67 335 316 300 297 297 314 319 323 292 301 271 82 62 79 72 62 58 47 33
156 117 154 141 172 152 65 2 357 354 217 139 174 107 196 9 140 2 11 334 270 315 343 275 84 356 315 306 322 312 355 336 313 315 295 6 289 300 112 88 77 77 66 54 35
133 117 158 62 345 55 7 342 328 264 244 344 97 46 157 312 17 116 356 280 295 319 326 280 344 5 309 320 344 279 330 297 279 270 285 262 244 278 132 103 88 58 49 39 39
125 113 142 140 78 60 332 301 243 229 113 103 77 350 236 57 78 24 324 127 275 291 253 258 271 280 2 316 268 294 297 297 272 248 257 292 195 298 94 91 65 40 29 25 31
100 126 54 4 46 326 326 235 229 287 228 94 42 355 316 18 78 14 8 51 31 344 19 309 43 90 27 332 316 356 340 305 304 150 220 45 353 110 98 75 42 23 19 14 3
81 89 73 35 327 328 255 240 263 55 48 76 338 273 23 357 112 329 318 147 47 354 300 338 217 166 67 41 323 297 262 287 301 324 321 331 233 131 104 51 42 25 6 358 359
63 135 78 342 341 12 261 246 30 23 354 343 250 256 129 133 335 318 82 51 45 20 359 341 268 358 10 32 344 9 347 346 295 276 270 227 242 134 49 29 21 359 355 353 350
317 150 50 339 326 255 254 79 96 30 338 294 339 354 343 38 321 1 68 44 63 33 343 40 296 295 121 313 252 228 72 11 304 279 273 290 315 273 5 2 352 346 341 342 350
272 224 355 347 287 236 2 63 105 44 2 357 9 318 58 9 333 321 69 70 39 5 312 335 234 295 333 276 351 322 301 291 260 243 267 320 255 49 2 354 339 331 337 329 346
286 256 347 352 237 26 67 68 357 33 18 43 43 30 15 3 316 330 14 70 53 334 334 45 314 289 273 312 27 320 295 277 226 280 330 273 273 311 336 333 316 308 316 330 339
356 44 7 320 306 102 115 91 55 53 26 38 70 20 18 355 329 51 21 122 84 21 28 10 261 304 148 118 182 37 14 297 248 260 261 264 267 327 313 308 303 304 323 341 347
294 226 84 49 337 121 135 128 110 30 67 42 61 338 341 275 131 325 304 119 124 235 85 177 261 253 267 293 306 298 300 293 287 280 287 267 288 299 300 294 295 332 334 343 341
359 60 1 50 56 81 77 133 135 127 89 340 132 57 40 288 309 253 73 302 222 123 198 233 269 276 284 300 302 293 289 282 274 276 271 288 279 283 293 316 320 320 342 342 334
5 359 92 76 323 120 169 95 133 133 275 143 258 131 286 260 299 291 320 298 273 183 240 212 275 311 289 280 276 289 286 284 276 274 273 288 294 305 310 307 315 342 334 327 316
23 30 277 179 248 265 51 129 130 133 96 14 4 307 278 354 348 317 309 290 276 283 289 287 280 321 261 319 311 287 282 343 312 303 313 311 313 322 339 349 335 330 324 313 326